Regional Weather Roundup
Issued by NWS

Home | Current Version | Previous Version | Text Only | Print | Product List | Glossary Off
Versions: 1 2 3 4 5 6 7 8 9 10 11 12 13 14 15 16 17 18 19 20 21 22 23 24 25 26 27 28 29 30 31 32 33 34 35 36 37 38 39 40 41 42 43 44 45 46 47 48 49 50

000
ASUS43 KLSX 251359
RWRMO

WEATHER SUMMARY FOR MISSOURI
NATIONAL WEATHER SERVICE SPRINGFIELD MO
900 AM CDT FRI JUL 25 2014

NOTE: "FAIR" INDICATES FEW OR NO CLOUDS BELOW 12,000 FEET WITH NO
       SIGNIFICANT WEATHER AND/OR OBSTRUCTIONS TO VISIBILITY.
       CURRENT SKY AND/OR WEATHER CONDITIONS ARE NOT AVAILABLE FOR
       CHILLICOTHE AND FARMINGTON.

MOZ001>031-035>038-043-044-053-054-251500-
...NORTHERN AND WESTERN MISSOURI...

CITY           SKY/WX    TMP DP  RH WIND       PRES   REMARKS
KANSAS CTY INT PTSUNNY   77  70  79 S21       29.87F
KANSAS C DTWN  MOSUNNY   76  68  76 S14       29.88F
LEE`S SUMMIT   MOSUNNY   75  67  76 S12G26    29.91F
ST JOSEPH      CLOUDY    76  70  82 S17       29.83F
CHILLICOTHE      N/A     72  62  71 SE5       29.93R
KIRKSVILLE     CLOUDY    63  59  87 SE14      29.97F

$$
MOZ066>068-077>081-088>096-101>105-251500-
...SOUTHWEST MISSOURI...

CITY           SKY/WX    TMP DP  RH WIND       PRES   REMARKS
SPRINGFIELD    CLOUDY    72  66  81 S15       30.02F
JOPLIN         SUNNY     78  70  76 S17G26    30.00R

$$
MOZ032>034-039>042-045>050-055>058-069>072-251500-
...CENTRAL MISSOURI...

CITY           SKY/WX    TMP DP  RH WIND       PRES   REMARKS
COLUMBIA       PTSUNNY   69  58  67 S15       30.00F
JEFFERSON CITY CLOUDY    71  58  63 SE7       30.00F
ROLLA          PTSUNNY   71  58  63 S12       30.04S
SEDALIA        PTSUNNY   75  63  66 S14       29.97F
OSAGE BEACH    PTSUNNY   70  57  64 S9        30.02S

$$
MOZ051-052-059>065-251500-
...EAST CENTRAL MISSOURI...

CITY           SKY/WX    TMP DP  RH WIND       PRES   REMARKS
ST LOUIS INTL  PTSUNNY   72  59  63 S5        30.07F
SPIRIT OF STL  PTSUNNY   70  59  68 S3        30.06F
ST CHARLES     CLOUDY    68  61  78 SE3       30.07F

$$
MOZ072>076-082>087-097>100-106>115-251500-
...SOUTH CENTRAL AND SOUTHEAST MISSOURI...

CITY           SKY/WX    TMP DP  RH WIND       PRES   REMARKS
CAPE GIRARDEAU MOSUNNY   70  63  78 S3        30.09R
FARMINGTON     SUNNY     68  61  77 S6        30.12R
POPLAR BLUFF   MOSUNNY   72  61  68 CALM      30.07S
WEST PLAINS    MOSUNNY   69  59  70 S7        30.10S

$$


USA.gov is the U.S. government's official web portal to all federal, state and local government web resources and services.